Temp
68 68 65 65 55 51 52 52 62 62 62 62 63 61 59 56 57 52 61 66 68 67 69 71 73 74 74 75 75 75 75 75 76 76 76 75 75 75 75 74 74 75 75 74 74 73 73 72 72
67 72 65 57 49 43 48 54 57 62 62 61 63 59 56 53 59 59 61 67 69 68 69 70 72 73 74 74 74 75 74 75 76 75 75 75 75 75 74 74 74 74 74 74 73 73 72 72 72
72 71 59 53 46 44 47 55 55 63 61 60 58 60 58 55 58 60 64 67 68 67 69 70 71 73 74 74 74 74 74 75 75 75 75 75 75 74 74 73 73 73 73 73 73 72 72 71 71
67 64 59 50 46 51 54 59 61 62 60 62 59 54 59 65 64 64 67 67 67 67 68 69 72 73 73 74 74 74 74 74 74 74 74 74 73 73 74 72 72 72 73 72 72 71 71 71 71
64 58 49 45 48 53 57 63 64 61 59 59 58 54 55 63 66 66 65 67 69 67 67 69 71 72 73 73 73 73 73 73 73 73 73 73 72 72 72 72 72 72 72 71 71 71 70 70 70
59 56 46 43 47 55 57 63 66 64 59 57 57 56 56 64 64 64 66 67 69 67 67 68 67 69 71 72 72 72 72 72 72 72 72 72 72 72 72 72 71 71 71 71 70 70 70 70 70
54 52 48 47 49 53 58 63 62 62 59 58 60 55 60 62 63 64 65 67 66 66 66 65 66 66 67 68 69 70 71 71 71 71 71 70 70 70 70 70 71 71 70 70 70 70 70 70 70
57 54 48 49 49 53 58 61 63 67 59 63 62 53 55 61 62 64 65 66 67 65 65 64 63 64 64 64 65 66 68 68 68 68 67 66 67 67 67 66 68 70 70 70 70 70 70 70 70
62 48 46 51 51 54 60 59 61 66 62 57 59 59 62 63 62 63 64 64 65 66 64 63 63 62 62 63 62 63 65 65 65 65 64 63 62 63 63 63 66 69 69 70 70 70 69 68 65
54 45 51 59 57 56 60 61 61 60 57 56 56 60 63 62 61 60 61 62 63 64 64 63 62 61 62 66 61 62 64 62 63 63 62 62 62 62 64 60 62 65 65 67 68 68 67 63 62
55 49 57 59 61 62 60 60 63 59 54 57 56 58 59 59 60 60 60 62 63 64 63 62 62 62 61 61 60 60 61 61 61 62 62 62 63 61 61 60 61 61 59 61 63 63 64 66 64
52 59 60 61 62 61 60 62 60 60 60 64 62 63 60 59 59 60 59 60 60 61 62 63 63 62 60 59 59 60 60 60 60 62 63 61 60 61 61 60 61 62 65 62 62 62 63 62 62
56 58 61 63 62 61 62 60 60 59 57 61 62 62 60 60 59 61 62 61 60 61 62 62 62 62 61 60 60 61 61 61 61 62 63 62 61 61 61 63 67 67 67 64 61 61 60 59 59
56 60 62 62 62 61 59 58 61 55 58 58 60 60 60 60 59 59 59 59 60 62 61 62 63 63 63 62 62 62 62 62 62 61 62 63 62 62 64 65 64 64 64 63 60 58 57 56 56
58 53 59 60 60 58 61 54 57 56 58 57 58 59 59 59 60 61 62 61 62 63 63 63 63 63 63 63 64 66 66 62 61 63 66 66 66 66 64 62 61 61 60 60 57 57 55 54 55
50 51 46 56 58 60 57 48 58 57 56 56 57 57 58 59 60 61 63 63 62 62 62 64 68 64 64 66 67 65 63 60 63 63 63 64 64 64 62 60 58 59 58 55 54 53 52 50 50
48 43 44 50 61 58 54 48 58 57 57 55 56 57 58 58 58 60 63 64 64 65 64 63 64 64 64 64 63 62 61 60 59 58 60 61 61 61 60 58 58 56 56 54 51 51 50 48 49
36 42 46 46 56 55 52 50 55 56 57 56 55 55 57 58 60 61 63 65 66 66 66 65 64 64 64 61 60 59 57 56 56 56 56 58 58 58 57 56 55 55 52 52 51 49 50 47 47
41 34 34 50 55 50 51 53 55 56 55 55 55 55 56 58 60 62 64 65 63 62 63 64 63 62 63 60 59 56 51 52 52 53 53 53 55 54 54 52 52 53 50 49 48 47 48 46 47
42 36 35 47 54 50 50 50 58 56 56 56 56 56 57 54 54 55 55 56 59 58 61 60 62 63 63 61 57 55 52 51 51 51 50 51 51 52 52 51 50 50 49 47 46 47 45 47 47
38 36 36 37 48 49 48 45 49 54 56 57 58 59 59 55 51 50 50 50 53 52 54 56 57 57 57 55 52 51 51 51 50 48 47 47 49 49 49 49 46 48 47 45 45 44 45 44 46
35 42 39 41 42 39 50 37 46 52 53 52 54 56 56 53 49 48 47 46 48 48 50 51 52 53 56 56 53 52 49 47 47 45 45 45 46 46 47 47 47 45 45 43 44 44 42 42 36
38 41 38 38 41 42 42 40 45 51 50 50 53 54 52 50 49 47 46 46 47 47 46 48 49 49 49 50 50 47 45 45 45 44 42 42 42 42 42 42 42 42 43 42 41 37 36 37 35
42 39 39 41 41 34 40 42 41 45 49 51 50 49 48 48 47 46 46 47 45 46 46 47 47 47 47 46 46 45 44 44 42 41 40 39 39 39 40 43 43 43 41 39 36 36 35 35 35
40 34 30 29 29 30 43 39 42 49 56 56 49 47 46 46 45 44 44 44 45 44 44 45 46 44 46 45 46 45 44 43 41 40 39 38 37 39 40 40 39 37 37 36 36 35 34 33 33
35 34 29 23 27 30 40 34 41 43 46 50 50 46 44 44 44 44 44 45 44 43 44 44 44 43 44 43 42 42 42 40 39 39 38 39 39 39 39 38 37 37 36 36 36 35 35 33 32
34 33 37 30 31 31 34 36 40 43 41 43 41 42 41 41 41 41 43 43 43 43 44 43 42 40 40 40 40 39 39 39 37 38 40 39 38 39 36 36 36 36 36 35 35 33 32 32 31
40 42 32 32 26 25 31 33 36 36 38 39 39 39 39 40 40 40 41 42 42 41 41 41 41 39 39 39 39 38 38 39 39 38 36 36 36 36 36 34 33 33 32 32 32 31 31 30 30
35 35 36 36 32 27 27 32 41 41 40 38 39 39 38 39 39 40 41 41 40 40 39 38 39 39 39 39 39 38 37 37 37 35 35 34 34 34 33 32 31 31 30 30 29 29 29 29 29
38 37 39 32 29 31 30 32 42 42 43 42 41 40 40 40 41 41 39 39 39 38 39 38 38 38 38 38 37 36 35 34 33 32 32 33 32 32 32 31 30 29 28 28 28 27 27 27 27
MSLP
1014.09 1013.97 1014.00 1014.39 1015.72 1015.74 1015.02 1014.36 1013.61 1013.66 1014.07 1014.47 1014.71 1015.37 1016.07 1016.95 1017.41 1018.46 1017.99 1018.08 1018.12 1018.60 1018.88 1019.05 1019.16 1019.27 1019.25 1019.15 1019.31 1019.72 1020.02 1020.25 1020.45 1020.71 1020.95 1021.13 1021.24 1021.34 1021.42 1021.47 1021.45 1021.41 1021.40 1021.43 1021.46 1021.45 1021.43 1021.40 1021.35
1014.05 1014.05 1014.46 1015.24 1016.01 1016.13 1015.29 1014.24 1014.04 1013.75 1014.39 1015.03 1015.15 1015.92 1016.60 1017.28 1017.50 1018.02 1018.23 1018.30 1018.24 1018.79 1019.04 1019.27 1019.43 1019.48 1019.46 1019.35 1019.60 1019.91 1020.18 1020.47 1020.66 1020.94 1021.20 1021.39 1021.49 1021.61 1021.74 1021.79 1021.74 1021.69 1021.68 1021.68 1021.67 1021.66 1021.62 1021.56 1021.49
1013.93 1014.12 1015.45 1015.74 1016.21 1015.92 1015.05 1014.21 1013.87 1014.05 1014.63 1014.92 1015.63 1016.21 1016.81 1017.41 1017.76 1017.94 1017.98 1018.28 1018.50 1019.03 1019.24 1019.50 1019.64 1019.73 1019.79 1019.81 1019.88 1020.17 1020.42 1020.64 1020.82 1021.02 1021.33 1021.54 1021.60 1021.78 1021.95 1022.05 1022.07 1022.01 1021.96 1021.94 1021.91 1021.85 1021.80 1021.74 1021.64
1014.36 1014.85 1016.10 1016.08 1016.07 1015.09 1014.43 1013.76 1013.68 1014.04 1014.72 1015.01 1015.77 1016.75 1016.94 1016.86 1017.25 1017.76 1018.24 1018.44 1018.73 1019.20 1019.49 1019.70 1019.84 1019.97 1020.14 1020.25 1020.37 1020.54 1020.75 1020.94 1021.12 1021.27 1021.49 1021.72 1021.94 1022.00 1022.03 1022.29 1022.30 1022.30 1022.26 1022.19 1022.18 1022.14 1022.07 1021.94 1021.81
1014.95 1015.57 1016.38 1016.41 1015.63 1014.68 1013.99 1013.50 1013.39 1014.14 1014.70 1015.38 1015.88 1016.88 1017.16 1017.16 1017.14 1017.79 1018.45 1018.60 1019.02 1019.47 1019.75 1019.91 1020.06 1020.17 1020.33 1020.52 1020.72 1020.90 1021.11 1021.28 1021.42 1021.63 1021.83 1022.02 1022.22 1022.30 1022.33 1022.41 1022.48 1022.49 1022.45 1022.40 1022.33 1022.29 1022.21 1022.11 1021.94
1015.50 1015.93 1016.61 1016.51 1015.39 1014.44 1013.83 1013.29 1013.02 1013.79 1014.84 1015.73 1016.17 1016.86 1017.56 1017.59 1017.52 1018.13 1018.58 1018.97 1019.08 1019.51 1019.97 1020.20 1020.35 1020.50 1020.58 1020.75 1020.94 1021.13 1021.34 1021.56 1021.74 1021.93 1022.13 1022.24 1022.38 1022.49 1022.57 1022.60 1022.61 1022.61 1022.58 1022.50 1022.42 1022.34 1022.24 1022.10 1021.92
1015.73 1016.11 1016.21 1015.92 1015.17 1014.35 1013.70 1013.24 1013.30 1013.36 1014.85 1015.55 1015.89 1017.01 1017.76 1018.01 1017.92 1018.17 1018.64 1019.05 1019.40 1019.73 1020.13 1020.50 1020.71 1020.83 1020.99 1021.12 1021.26 1021.42 1021.60 1021.76 1021.92 1022.13 1022.31 1022.43 1022.60 1022.69 1022.73 1022.72 1022.69 1022.67 1022.68 1022.64 1022.55 1022.43 1022.28 1022.16 1021.99
1016.05 1016.09 1015.90 1015.39 1014.87 1014.08 1013.48 1013.55 1013.30 1013.18 1014.84 1015.40 1015.79 1016.44 1017.36 1017.68 1018.07 1018.34 1018.94 1019.36 1019.68 1019.98 1020.31 1020.70 1020.96 1021.11 1021.23 1021.44 1021.56 1021.65 1021.75 1021.94 1022.14 1022.37 1022.54 1022.63 1022.77 1022.79 1022.79 1022.85 1022.82 1022.78 1022.74 1022.60 1022.44 1022.41 1022.39 1022.29 1022.21
1015.73 1015.93 1015.70 1014.83 1014.33 1013.69 1013.33 1013.57 1013.68 1013.73 1014.60 1015.76 1015.93 1015.84 1015.82 1017.01 1018.05 1018.60 1019.06 1019.54 1019.86 1020.27 1020.52 1020.84 1021.14 1021.38 1021.55 1021.67 1021.83 1021.89 1022.00 1022.10 1022.30 1022.50 1022.72 1022.88 1023.02 1023.12 1023.10 1023.05 1023.00 1022.92 1022.80 1022.65 1022.55 1022.47 1022.33 1022.21 1022.07
1015.88 1016.19 1014.91 1013.90 1013.47 1013.15 1013.16 1013.29 1013.53 1014.16 1015.02 1015.93 1015.91 1016.01 1016.28 1017.35 1018.04 1018.45 1018.77 1019.23 1019.66 1020.14 1020.65 1020.84 1021.11 1021.40 1021.68 1021.76 1022.04 1022.07 1022.21 1022.45 1022.64 1022.80 1022.92 1023.03 1023.06 1023.14 1023.16 1023.17 1023.12 1023.02 1022.82 1022.78 1022.67 1022.51 1022.30 1022.14 1022.05
1015.63 1015.48 1014.52 1013.46 1012.92 1012.88 1012.83 1013.24 1013.29 1014.03 1015.03 1014.81 1014.90 1015.85 1016.56 1017.32 1018.03 1018.46 1018.91 1019.08 1019.34 1019.89 1020.50 1020.87 1021.06 1021.34 1021.65 1021.84 1022.16 1022.35 1022.46 1022.64 1022.82 1022.89 1022.96 1023.09 1023.16 1023.21 1023.26 1023.26 1023.14 1023.04 1022.95 1022.99 1022.80 1022.55 1022.35 1022.11 1022.08
1015.35 1014.90 1014.46 1013.56 1012.86 1012.80 1012.70 1012.76 1013.17 1013.52 1013.70 1013.47 1014.39 1014.63 1015.96 1016.93 1017.55 1017.96 1018.66 1019.02 1019.39 1019.87 1020.27 1020.62 1020.90 1021.20 1021.57 1021.86 1022.11 1022.35 1022.58 1022.70 1022.80 1022.85 1022.90 1023.05 1023.22 1023.25 1023.23 1023.31 1023.09 1022.98 1022.83 1022.90 1022.87 1022.81 1022.70 1022.51 1022.36
1014.77 1014.40 1014.12 1013.45 1013.12 1012.64 1012.68 1012.61 1012.86 1013.27 1013.74 1013.82 1014.68 1015.55 1016.00 1016.75 1017.43 1017.91 1018.36 1018.98 1019.34 1019.70 1020.07 1020.34 1020.70 1021.02 1021.34 1021.77 1022.02 1022.33 1022.53 1022.64 1022.64 1022.74 1022.87 1022.95 1023.10 1023.14 1023.12 1023.00 1022.83 1022.80 1022.72 1022.84 1022.91 1022.84 1022.86 1022.85 1022.77
1014.31 1014.40 1013.96 1013.56 1013.22 1012.70 1012.72 1012.77 1012.69 1013.59 1013.99 1014.63 1015.04 1015.67 1016.19 1016.56 1017.10 1017.74 1018.22 1018.80 1019.18 1019.53 1019.86 1020.11 1020.47 1020.79 1021.17 1021.46 1021.82 1022.00 1022.24 1022.39 1022.55 1022.71 1022.86 1022.89 1022.96 1022.99 1022.88 1023.09 1023.22 1023.24 1023.21 1023.17 1023.19 1023.31 1023.31 1023.24 1023.22
1014.61 1014.51 1013.86 1013.35 1013.48 1013.28 1012.73 1013.04 1012.66 1013.32 1014.13 1014.83 1015.27 1015.74 1016.44 1016.72 1017.17 1017.43 1017.83 1018.28 1018.63 1019.10 1019.66 1020.02 1020.21 1020.57 1020.99 1021.28 1021.56 1021.74 1021.89 1022.45 1022.81 1022.91 1022.93 1022.93 1022.90 1022.93 1023.27 1023.67 1023.72 1023.81 1023.78 1023.62 1023.57 1023.52 1023.59 1023.45 1023.16
1014.72 1014.36 1013.62 1012.79 1013.56 1013.26 1013.04 1012.68 1012.58 1013.18 1014.03 1014.94 1015.39 1015.82 1016.29 1016.65 1016.97 1017.32 1017.63 1017.99 1018.40 1018.73 1019.36 1019.86 1019.97 1020.55 1020.84 1021.02 1021.32 1021.91 1022.49 1022.83 1022.99 1023.19 1023.35 1023.43 1023.40 1023.41 1023.69 1023.93 1024.12 1024.14 1024.06 1024.00 1024.10 1024.12 1024.05 1023.98 1023.74
1013.67 1012.73 1012.64 1012.91 1012.39 1012.93 1013.29 1012.58 1012.23 1013.07 1013.65 1014.73 1015.17 1015.67 1016.13 1016.73 1016.92 1017.11 1017.31 1017.69 1018.01 1018.45 1018.89 1019.68 1020.11 1020.48 1020.84 1021.38 1021.81 1022.42 1023.07 1023.39 1023.78 1023.94 1024.01 1024.01 1024.05 1024.14 1024.30 1024.50 1024.61 1024.55 1024.30 1024.51 1024.71 1024.45 1024.47 1024.52 1024.10
1015.06 1013.57 1012.73 1012.51 1011.93 1013.10 1012.85 1012.26 1012.45 1012.64 1013.20 1014.00 1014.72 1015.28 1015.85 1016.35 1016.52 1016.89 1017.20 1017.48 1017.88 1018.33 1018.84 1019.23 1019.86 1020.34 1020.85 1021.74 1022.43 1023.13 1023.76 1024.21 1024.55 1024.73 1024.85 1024.82 1024.84 1024.74 1024.79 1025.19 1025.32 1025.19 1025.30 1025.19 1025.02 1025.16 1024.95 1025.00 1024.74
1015.29 1015.25 1014.59 1012.57 1012.14 1013.10 1012.54 1012.30 1012.35 1012.39 1012.97 1013.69 1014.48 1015.05 1015.55 1016.06 1016.60 1016.83 1017.19 1017.62 1018.12 1018.59 1018.92 1019.30 1019.68 1020.37 1021.03 1021.92 1022.69 1023.43 1024.36 1025.01 1025.37 1025.49 1025.56 1025.54 1025.52 1025.51 1025.49 1025.64 1025.80 1026.02 1026.05 1025.95 1025.62 1025.51 1025.60 1025.61 1024.90
1015.10 1015.79 1015.25 1013.52 1012.20 1012.64 1012.63 1012.12 1011.59 1012.23 1012.60 1013.02 1013.71 1014.72 1015.42 1016.08 1017.02 1017.38 1017.72 1018.09 1018.60 1019.07 1019.42 1019.70 1020.02 1020.24 1020.91 1021.51 1022.41 1023.18 1024.35 1025.43 1025.86 1026.23 1026.32 1026.34 1026.39 1026.26 1026.26 1026.33 1026.24 1026.17 1026.81 1027.04 1026.55 1026.31 1026.15 1026.42 1026.11
1015.69 1016.03 1015.62 1015.37 1012.93 1012.12 1012.55 1012.31 1012.13 1011.85 1012.46 1012.81 1013.42 1014.05 1015.23 1015.74 1017.02 1018.01 1018.54 1018.94 1019.25 1019.77 1020.17 1020.41 1020.71 1020.77 1021.10 1021.77 1022.60 1023.64 1024.55 1025.43 1026.19 1026.77 1027.16 1027.39 1027.19 1027.60 1026.72 1026.94 1027.56 1027.00 1027.15 1027.34 1027.46 1027.27 1027.16 1027.22 1027.12
1015.53 1016.05 1015.99 1014.82 1013.25 1010.89 1011.23 1010.91 1011.57 1012.25 1012.65 1012.68 1013.52 1014.34 1015.29 1016.43 1017.65 1018.27 1019.01 1019.69 1020.11 1020.71 1021.05 1021.22 1021.34 1021.48 1021.77 1022.03 1022.76 1023.40 1024.28 1025.41 1026.66 1027.37 1027.56 1027.45 1027.71 1027.96 1028.54 1027.59 1028.07 1027.26 1027.98 1027.94 1028.10 1028.11 1028.14 1028.05 1028.20
1015.27 1015.30 1015.20 1014.34 1012.46 1011.49 1010.71 1011.33 1010.40 1011.81 1012.53 1013.30 1013.81 1014.61 1015.69 1016.77 1017.70 1018.55 1019.52 1020.21 1020.99 1021.04 1021.68 1021.95 1022.12 1022.41 1022.67 1022.96 1023.67 1024.05 1025.20 1026.28 1026.96 1027.35 1028.23 1028.32 1028.28 1027.88 1028.86 1028.82 1028.71 1028.20 1028.56 1028.56 1029.07 1029.17 1029.09 1029.01 1029.04
1015.42 1014.49 1014.68 1013.01 1012.12 1010.67 1010.15 1010.39 1010.59 1010.63 1010.79 1013.30 1014.26 1015.38 1016.20 1017.30 1018.37 1019.20 1020.27 1020.92 1021.74 1021.60 1021.99 1022.33 1022.67 1023.24 1023.56 1023.95 1024.53 1025.19 1026.18 1027.60 1027.87 1027.61 1028.10 1028.78 1029.05 1029.20 1028.83 1028.97 1029.16 1029.06 1029.02 1029.51 1029.71 1029.84 1029.92 1029.98 1029.92
1015.19 1015.47 1014.68 1013.10 1012.00 1010.36 1010.15 1010.99 1010.60 1010.56 1011.21 1012.20 1013.99 1015.62 1016.65 1017.81 1018.88 1019.64 1020.47 1021.41 1022.17 1021.95 1022.52 1022.84 1023.39 1023.99 1024.49 1024.89 1025.19 1025.39 1026.32 1027.23 1027.86 1028.48 1028.57 1029.14 1029.43 1029.81 1029.35 1029.55 1029.67 1030.09 1030.06 1029.94 1029.86 1030.00 1030.20 1030.53 1030.80
1014.96 1015.28 1015.43 1013.95 1012.24 1011.29 1010.83 1010.81 1011.12 1012.06 1012.34 1012.56 1014.11 1015.74 1016.96 1018.65 1019.49 1020.13 1020.90 1021.29 1022.29 1022.45 1022.88 1023.60 1024.15 1024.51 1025.05 1025.44 1026.20 1026.69 1026.82 1027.71 1028.19 1029.23 1029.11 1029.70 1029.93 1029.76 1029.78 1030.22 1030.30 1030.39 1030.22 1030.32 1030.43 1030.63 1030.83 1030.93 1030.96
1014.96 1015.25 1015.28 1014.36 1012.98 1011.76 1011.51 1012.20 1012.46 1012.97 1013.65 1013.95 1015.43 1016.80 1017.89 1018.83 1020.01 1020.82 1021.41 1021.57 1022.49 1023.11 1023.41 1023.88 1024.72 1025.10 1025.58 1026.08 1026.58 1027.54 1027.73 1028.08 1028.97 1028.98 1029.48 1030.37 1030.30 1030.08 1030.52 1030.73 1030.87 1030.84 1030.96 1031.07 1031.10 1031.22 1031.54 1031.55 1031.55
1014.38 1014.66 1014.82 1014.55 1013.93 1012.55 1012.10 1012.35 1012.84 1013.76 1014.75 1015.46 1016.56 1017.63 1018.72 1019.65 1020.41 1021.30 1021.73 1022.23 1022.66 1023.44 1023.72 1024.35 1025.17 1025.76 1026.38 1026.91 1027.26 1027.95 1028.38 1028.59 1029.07 1029.56 1030.22 1030.37 1030.32 1030.52 1030.79 1031.24 1031.48 1031.45 1031.68 1031.66 1031.66 1031.76 1032.05 1032.05 1032.15
1014.75 1014.39 1014.33 1014.65 1014.79 1013.80 1012.74 1013.16 1013.58 1013.65 1014.82 1015.77 1017.21 1018.16 1018.94 1019.84 1020.49 1021.17 1021.74 1022.53 1023.54 1023.87 1024.47 1025.06 1025.56 1026.30 1027.04 1027.37 1027.83 1028.36 1028.74 1029.13 1029.52 1029.86 1030.32 1030.63 1030.88 1031.09 1031.45 1031.86 1031.97 1032.13 1032.10 1032.00 1032.10 1032.20 1032.50 1032.44 1032.51
1014.68 1014.50 1014.27 1014.66 1014.78 1013.89 1013.67 1013.88 1014.02 1013.78 1014.44 1015.99 1017.46 1018.60 1019.54 1020.27 1020.88 1021.68 1022.44 1023.40 1024.19 1024.21 1025.10 1025.57 1026.23 1026.85 1027.47 1027.83 1028.28 1028.78 1029.50 1029.67 1029.77 1030.19 1030.80 1030.94 1031.35 1031.62 1031.84 1032.20 1032.45 1032.58 1032.78 1032.70 1032.74 1032.60 1032.85 1032.83 1032.85
Wind_Speed
7 4 2 5 4 4 2 1 4 3 3 5 3 3 6 4 2 3 1 6 12 8 6 6 10 9 7 7 13 13 11 15 16 14 13 12 11 11 11 10 10 10 11 10 10 9 9 9 9
4 1 5 2 5 3 4 3 3 1 5 7 6 4 6 2 3 6 5 7 11 8 6 6 9 10 11 11 13 12 14 17 16 15 13 11 11 10 10 9 9 9 9 9 9 9 9 9 9
3 4 3 4 3 5 4 3 1 4 7 1 5 5 4 3 3 6 6 9 11 7 7 8 10 11 13 14 15 15 15 15 15 15 13 12 10 11 9 9 8 8 8 8 8 8 8 8 8
3 4 4 4 4 5 5 5 5 5 3 6 5 7 3 3 8 7 10 10 11 8 7 9 11 13 13 13 15 16 15 14 13 12 12 11 10 10 10 8 7 7 7 7 7 7 7 7 7
3 3 2 1 4 3 3 3 7 3 2 3 1 5 3 3 10 16 11 10 15 8 6 7 11 12 12 13 13 13 13 12 13 12 12 11 9 9 8 7 7 6 6 5 5 5 6 6 6
3 3 2 3 4 4 2 4 7 5 4 3 6 5 2 7 16 11 11 12 13 13 7 6 9 9 11 11 11 12 12 12 12 12 10 10 9 8 8 7 5 4 3 2 2 3 4 5 6
2 3 5 4 4 2 4 4 4 7 6 4 9 5 4 8 8 12 12 12 9 8 8 6 5 7 9 9 9 9 11 11 11 10 9 8 7 6 5 4 3 2 1 2 3 4 5 6 7
3 2 2 5 5 6 3 3 5 9 3 5 4 7 7 10 9 11 12 13 13 8 7 6 5 5 5 5 7 9 9 9 9 8 7 6 6 5 5 2 1 1 2 3 4 5 6 8 9
3 1 4 5 7 5 3 4 1 2 8 1 2 5 5 17 13 13 14 13 11 9 7 6 5 5 5 5 5 6 7 7 7 6 7 5 2 1 1 2 3 4 5 6 7 7 8 9 7
4 3 7 5 4 5 6 6 9 5 6 3 1 3 18 17 16 16 17 15 15 13 10 6 6 6 5 4 5 4 4 3 3 3 4 2 2 2 3 3 5 6 7 8 8 8 8 6 3
4 5 5 4 3 4 6 5 6 8 5 8 11 16 17 19 15 15 12 15 16 14 8 7 6 6 6 5 3 2 2 2 2 3 3 2 1 0 1 2 2 3 4 3 4 4 3 4 4
6 7 9 7 3 2 6 5 6 8 5 7 12 25 19 20 17 16 14 12 11 10 10 8 7 7 6 4 3 3 3 3 2 3 3 3 1 1 1 2 2 3 2 2 2 3 4 5 5
11 8 6 8 7 4 2 6 7 7 3 9 13 17 17 17 15 11 12 9 10 11 9 9 9 7 6 6 4 4 4 3 4 3 3 3 2 2 1 3 1 2 3 3 3 4 4 5 6
7 17 15 6 8 4 5 5 7 2 7 10 16 17 14 16 16 10 10 10 11 10 10 9 10 8 6 6 6 5 4 4 3 2 0 1 2 1 1 5 4 5 4 4 4 4 4 4 5
6 7 15 19 6 6 5 5 6 7 10 13 14 15 12 11 12 15 13 11 11 9 8 10 9 7 8 7 6 4 3 3 3 3 4 5 4 6 6 4 5 4 4 4 5 5 5 5 5
19 5 11 18 17 9 6 7 6 13 16 15 13 12 13 12 12 9 11 11 9 9 9 7 8 7 7 5 4 5 5 4 5 5 5 7 7 7 6 5 4 4 4 5 4 4 4 4 4
13 14 25 16 18 7 9 5 6 12 13 13 14 14 13 11 8 8 11 11 12 12 11 8 7 8 7 8 7 9 8 7 6 6 6 8 8 7 6 5 5 4 5 6 4 4 3 5 6
7 21 13 21 25 17 9 6 4 15 15 15 13 11 13 14 14 9 11 11 11 11 11 11 7 7 9 8 7 7 7 7 6 6 7 9 7 8 7 6 7 6 6 6 5 4 5 3 5
6 4 14 18 15 14 16 14 9 10 11 10 11 11 12 12 6 8 10 10 8 6 8 8 9 7 9 7 5 5 5 5 6 7 10 9 8 9 8 6 6 6 6 6 6 3 5 7 9
22 6 12 17 14 17 15 14 15 7 11 11 16 13 13 9 6 7 8 8 7 6 6 6 5 7 7 6 6 6 5 6 7 6 9 9 10 9 9 7 6 7 5 8 8 7 3 3 7
6 9 11 13 9 9 15 14 5 4 2 6 9 13 12 14 13 8 8 8 9 8 6 8 7 8 8 11 9 9 9 6 5 6 7 9 10 10 9 9 6 8 6 6 7 7 8 4 5
6 3 5 15 18 14 18 10 18 13 8 4 7 13 13 12 9 8 9 8 9 8 8 8 9 9 8 9 10 10 8 7 6 6 6 7 10 11 9 9 8 10 6 8 7 8 7 4 4
4 2 8 17 16 9 17 11 8 24 18 7 8 11 12 12 12 12 10 10 8 10 9 8 10 11 11 11 9 10 12 9 7 7 9 7 7 11 10 10 8 7 5 8 8 6 7 6 4
2 6 18 9 10 13 9 14 12 22 30 12 8 9 11 12 12 12 10 10 8 9 9 9 12 11 11 13 15 15 14 8 4 7 4 6 5 5 6 6 6 7 7 6 5 6 8 6 6
3 6 5 3 4 3 19 12 3 12 23 22 17 14 12 11 11 12 11 9 7 11 10 10 12 13 11 14 12 13 12 9 6 6 6 5 4 2 6 6 6 4 5 6 5 7 8 6 5
4 5 1 4 2 3 10 8 4 3 6 5 15 14 14 11 9 10 10 11 8 10 11 12 12 14 10 11 10 7 10 6 7 5 6 3 3 4 6 6 5 6 6 6 6 5 5 6 6
4 3 6 2 3 2 5 2 1 5 8 12 14 15 13 13 10 10 9 10 11 10 12 12 11 11 11 9 10 8 8 9 7 7 6 3 4 6 6 6 6 6 7 6 6 5 5 5 5
3 6 3 1 5 3 1 2 3 6 7 10 12 12 12 10 11 10 9 9 11 9 10 11 10 10 9 10 9 8 8 7 7 7 6 5 6 6 6 6 5 6 6 5 5 5 5 6 4
2 3 4 3 1 3 2 3 4 5 11 11 9 10 11 11 11 10 10 9 8 10 10 10 10 10 9 8 9 8 7 7 7 7 6 5 6 6 6 5 6 5 6 5 5 6 5 6 5
1 3 1 3 3 2 1 3 5 4 10 11 11 10 9 10 11 10 10 9 7 10 9 9 8 9 7 8 9 9 7 7 7 7 6 5 6 5 6 5 6 6 5 5 5 5 4 5 4
Wind_Direction
326 337 77 44 62 63 248 165 279 179 100 340 53 102 136 46 137 188 24 136 127 133 134 133 119 103 83 111 158 153 153 138 124 113 105 106 107 103 100 91 84 78 76 75 72 68 62 53 46
323 40 40 81 97 104 254 267 204 225 124 151 89 82 47 84 97 125 105 148 126 131 124 114 115 101 85 96 130 136 136 127 114 112 105 103 103 102 93 96 90 84 78 75 72 67 60 50 45
325 60 70 107 120 183 203 211 200 79 162 243 101 59 110 129 75 137 138 132 120 117 120 124 119 109 93 94 107 119 122 117 118 113 112 116 115 115 109 98 84 78 75 71 67 60 52 43 38
6 17 28 101 213 251 197 189 125 117 157 65 111 76 63 146 155 148 134 130 125 121 121 126 123 117 110 100 102 106 107 110 112 114 121 116 106 101 101 95 88 81 75 68 59 49 37 29 23
22 59 56 297 251 262 220 223 131 106 75 106 30 144 96 40 117 129 135 135 143 126 126 127 126 125 121 119 117 115 118 119 117 118 123 121 117 112 109 104 95 85 73 61 50 32 18 9 8
26 96 89 233 243 257 227 246 140 132 99 153 91 107 107 132 127 139 136 144 144 140 125 125 124 125 124 123 125 126 124 123 124 125 123 120 117 114 110 109 108 100 86 58 28 7 350 340 340
113 105 204 210 242 264 218 174 176 121 128 235 151 98 97 155 143 138 136 143 131 126 120 116 122 124 120 123 124 124 131 131 133 131 126 119 116 114 120 128 130 127 58 350 340 328 322 319 321
130 125 221 222 197 239 215 190 157 121 118 116 164 165 173 178 155 130 137 144 144 132 128 132 128 130 126 131 131 132 130 131 129 130 128 126 135 151 157 155 220 250 284 286 291 304 313 317 330
120 8 224 231 159 218 193 157 254 56 111 103 261 168 180 140 137 139 146 150 155 150 148 141 144 143 139 137 148 141 147 145 142 138 145 141 153 195 247 266 276 288 288 291 301 316 315 323 324
161 201 225 221 212 190 192 170 160 133 137 217 235 62 127 141 153 155 161 164 168 164 167 163 158 156 151 148 155 153 148 143 145 155 169 180 187 224 241 272 284 293 292 304 317 323 315 321 320
203 212 264 268 216 222 193 178 190 134 220 200 184 154 148 151 160 162 166 169 171 171 172 175 167 162 164 153 160 162 146 145 164 181 185 203 153 257 260 287 297 284 300 314 320 333 338 353 351
222 237 249 288 228 225 185 160 188 171 203 186 168 160 152 162 169 169 169 171 166 165 178 173 178 167 176 153 167 171 165 177 192 209 191 152 161 207 249 266 276 274 282 343 359 360 1 9 2
228 213 272 250 257 231 199 197 193 185 32 123 140 161 161 165 167 169 169 169 164 173 178 175 175 173 171 170 169 171 193 196 202 191 199 166 179 203 247 246 139 17 47 50 21 20 12 8 357
177 231 236 278 270 263 194 223 153 157 126 133 154 172 171 168 170 160 164 169 169 180 178 171 177 178 167 172 176 183 182 194 192 167 129 162 173 220 215 57 37 35 20 24 41 27 17 16 3
225 211 223 244 259 272 169 248 209 138 141 151 168 175 176 172 166 175 176 171 171 172 165 170 175 166 171 179 185 180 168 108 91 74 69 57 42 63 64 57 49 33 19 24 30 21 27 16 359
212 200 210 209 226 250 189 225 223 155 152 175 175 182 183 189 179 173 176 174 170 155 165 169 169 171 165 179 125 79 79 78 76 65 53 50 55 68 72 70 53 33 38 38 33 18 24 5 358
207 209 217 212 211 223 203 212 182 168 159 177 184 189 191 186 178 177 179 178 172 171 165 163 161 162 165 90 92 86 77 68 58 49 48 47 52 57 67 59 47 41 51 39 5 35 41 4 346
323 215 213 214 209 222 220 232 178 178 171 183 188 184 192 190 195 181 180 182 179 174 169 162 163 163 108 104 95 86 74 62 51 54 45 41 42 47 63 51 43 40 37 28 28 22 23 29 338
217 270 323 206 203 196 226 209 221 184 193 176 183 187 187 185 184 182 181 176 158 157 158 165 157 150 131 127 122 98 88 81 64 58 51 47 51 52 56 61 57 44 41 39 27 7 26 13 0
214 268 293 275 189 176 213 217 222 155 204 190 184 191 173 141 125 105 105 100 95 87 99 101 113 132 146 130 116 114 117 88 81 69 59 52 49 48 57 51 60 58 36 24 29 24 24 23 23
218 228 262 258 226 187 181 230 229 222 252 184 195 186 180 160 144 123 98 93 97 85 74 97 83 94 104 111 105 101 102 94 80 65 57 39 48 37 60 56 28 49 45 48 31 26 31 22 31
155 74 322 266 227 200 183 216 223 205 189 218 171 165 157 142 123 122 119 100 99 88 76 75 82 81 99 120 125 131 124 120 99 90 82 71 48 49 23 51 42 58 45 43 28 34 35 36 31
175 80 313 270 240 190 193 219 182 217 216 193 161 154 151 145 141 129 115 106 106 100 91 84 83 76 77 86 93 105 101 102 111 106 84 56 61 74 44 42 48 60 59 54 53 45 46 43 63
61 19 293 209 242 216 185 194 196 191 212 189 154 146 140 138 131 115 112 112 115 100 99 97 92 86 91 91 97 97 99 101 132 104 86 86 54 62 63 50 47 54 64 67 53 48 46 45 51
109 76 288 194 215 243 169 200 161 190 202 192 166 154 136 133 133 135 133 131 137 113 107 103 103 99 102 105 106 115 111 111 93 82 92 106 86 58 60 59 52 53 63 57 63 66 61 50 53
117 127 260 312 278 127 165 198 186 62 323 153 154 137 126 131 136 136 139 130 126 110 111 111 111 109 100 102 91 65 93 100 96 109 96 82 109 84 71 67 68 56 59 62 58 57 68 61 63
127 156 150 309 221 238 148 175 215 88 64 103 130 136 138 135 131 134 135 130 122 125 119 116 112 103 100 98 99 98 98 102 110 97 92 113 104 94 74 67 67 59 56 58 62 67 61 64 61
164 159 127 105 323 355 33 141 86 173 146 128 138 137 135 130 132 137 132 133 115 114 102 100 99 95 99 104 102 106 111 107 103 100 113 100 85 87 83 72 70 64 57 60 65 63 52 63 51
314 149 99 114 260 308 15 37 325 169 154 147 145 144 142 146 141 141 123 107 114 107 103 105 105 112 114 110 112 110 99 101 106 104 93 91 92 91 94 91 78 69 63 56 71 74 60 65 58
20 35 197 155 230 323 80 343 322 83 143 142 144 146 140 134 132 128 120 127 127 113 113 106 111 119 121 118 111 104 110 111 101 99 104 106 107 99 100 88 80 70 61 56 63 67 67 70 71